Regional Weather Roundup
Issued by NWS Charleston, SC

Current Version | Previous Version | Graphics & Text | Print | Product List | Glossary On
Versions: 1 2 3 4 5 6 7 8 9 10 11 12 13 14 15 16 17 18 19 20 21 22 23 24 25 26 27 28 29 30 31 32 33 34 35 36 37 38 39 40 41 42 43 44 45 46 47 48 49 50
000
ASUS42 KCHS 091527
RWRCHS

REGIONAL WEATHER ROUNDUP
NATIONAL WEATHER SERVICE CHARLESTON SC
1000 AM EST FRI DEC 09 2016

NOTE: "FAIR" INDICATES FEW OR NO CLOUDS BELOW 12,000 FEET WITH NO
SIGNIFICANT WEATHER AND/OR OBSTRUCTIONS TO VISIBILITY.

NOT ALL STATIONS ARE QUALITY CONTROLLED. USE DATA WITH CAUTION...
ESPECIALLY DEWPOINT OBSERVATIONS.

SCZ027-030-031-034>040-042>050-091600-
...SOUTHEAST SOUTH CAROLINA...

CITY           SKY/WX    TMP DP  RH WIND       PRES   REMARKS
N CHARLESTON   MOSUNNY   45  18  34 N13       30.43R
WATERFRONT PRK   N/A     43  29  57 N15       30.41R
MOUNT PLEASANT FAIR      43  21  42 N6        30.43R
JOHNS ISLAND   FAIR      45  23  42 N10       30.42S
PINOPOLIS        N/A     39  25  56 NE7       30.36R WCI  34
MONCKS CORNER  FAIR      41  18  38 NE7       30.44R
SUMMERVILLE    FAIR      43  21  42 N8        30.45R
BEAUFORT MCAS  SUNNY     46  23  40 NE13      30.44R
BEAUFORT ARPT  FAIR      45  27  49 N10       30.43S
HILTON HEAD IS NOT AVBL
WALTERBORO     SUNNY     45  19  36 N9        30.46R
ALLENDALE      FAIR      43  19  39 N10       30.44S

...SOUTHERN MIDLANDS AND PEE DEE...

CITY           SKY/WX    TMP DP  RH WIND       PRES   REMARKS
GEORGETOWN     NOT AVBL
KINGSTREE      FAIR      37  19  48 N7        30.45R WCI  32
ORANGEBURG     SUNNY     41  19  41 NE10      30.45R
BARNWELL       NOT AVBL
AIKEN          FAIR      37  18  44 N9        30.47S WCI  31
MANNING        FAIR      37  19  48 NE10G16   30.45R WCI  30
COLUMBIA       MOSUNNY   41  17  38 N6        30.45R
SUMTER         SUNNY     39  17  41 N8        30.43R WCI  33
FLORENCE       SUNNY     40  19  43 N12       30.44R WCI  33
MYRTLE BEACH   SUNNY     41  19  42 N16       30.44R
N MYRTLE BEACH SUNNY     40  20  44 N13G20    30.41R WCI  32

$$

GAZ063-065-086>088-099>101-113>116-118-119-134>141-150-091600-
...SOUTHEAST GEORGIA...

CITY           SKY/WX    TMP DP  RH WIND       PRES   REMARKS
SAVANNAH ARPT  MOSUNNY   46  23  40 N10       30.44R
HUNTER AAF     SUNNY     46  28  48 N12       30.41R
FORT STEWART   SUNNY     45  22  40 N8        30.42R
STATESBORO     SUNNY     44  25  47 N7        30.45F
SYLVANIA       SUNNY    N/A N/A N/A NE6       30.46S
CLAXTON        FAIR      44  26  48 N6        30.45F

...CSRA...CENTRAL AND FAR SOUTHEAST GEORGIA...

CITY           SKY/WX    TMP DP  RH WIND       PRES   REMARKS
THOMSON        SUNNY     39  24  56 CALM      30.50R
AUGUSTA-BUSH   SUNNY     43  19  38 VRB7      30.45R
AUGUSTA-DANIEL SUNNY     41  15  35 N8G17     30.45R
SWAINSBORO     FAIR      41  21  45 N3        30.46F
VIDALIA        SUNNY     43  28  56 N6        30.45F
EASTMAN        FAIR      41   6  23 N3        30.50S
HAZLEHURST     FAIR      44  22  40 N8        30.44F
ALMA           SUNNY     44  22  41 VRB5      30.44S
WAYCROSS       SUNNY     48  27  43 N9        30.44S
JESUP          FAIR      46  30  53 N8        30.44S
BAXLEY         FAIR      45  28  53 NE9       30.44S
BRUNSWICK      MOSUNNY   46  30  53 N10G16    30.43S
SAINT SIMONS   MOSUNNY   46  25  43 N14       30.41R

$$

SCZ027-028-034-036>038-045-046-048>050-GAZ119-141-091600-
...LAKE AND SUPPLEMENTAL COASTAL OBSERVATIONS...

STATION/POSITION TIME  TEMP    WIND        PRES    WAVE   SWELL
                       AIR SEA DIR/SP/G            HT/PER HT/PER/DIR
                 (UTC) (F)     (DEG/KT/KT) (MB)    (FT/S) (FT/S/D)
WINYAH BAY       1445   40      10/  7     1030.0R
LAKE MURRAY      1450   38      10/  3/  8 1030.5R
ACE BASIN NERRS  1445   44      10/  4     1030.0R
FORT PULASKI     1500   44 60   10/ 10/ 13 1030.5
SAPELO ISLAND    1500   46     360/ 13     1030.0

$$

ANZ835-935-AMZ111-154-330-350-352-354-370-450-454-472-091600-
...C-MAN AND BUOY OBSERVATIONS...

STATION/POSITION TIME  TEMP    WIND        PRES    WAVE   SWELL
                       AIR SEA DIR/SP/G            HT/PER HT/PER/DIR
                 (UTC) (F)     (DEG/KT/KT) (MB)    (FT/S) (FT/S/D)
BUOY 41004       1450   50 73  360/ 17/ 23 1028.2R   6/ 7   2/260/14
BUOY 41008       1450   50 63   10/ 16/ 19 1029.1R   4/ 5   2/130/11
FOLLY BEACH CMAN 1500   43     360/ 12/ 14 1030.5R
CAPERS NEARSHORE 1508   43 60   20/ 16/ 23 1029.7R
FRIPP NEARSHORE  1508   45 60   10/ 14/ 17 1030.1R


STATION/POSITION TIME  TEMP    WIND        PRES    WAVE   SWELL
                       AIR SEA DIR/SP/G            HT/PER HT/PER/DIR
                 (UTC) (F)     (DEG/KT/KT) (MB)    (FT/S) (FT/S/D)
5E ST. MARYS GA  1500      64                N/A     4/ 5
FRYING PAN BUOY  1510   45 72  360/ 17/ 23 1028.3
BUOY 41025       1450   43 75  350/ 19/ 25 1026.2R   5/ 8   3/ 50/ 8
CAPE LOOKOUT NC  1500   39     340/ 13/ 15 1027.5R
BUOY 41002       1450   62 73  350/ 17/ 23 1022.8R   7/ 8   3/ 50/11
BUOY 41010       NOT AVBL
ST AUGUSTINE FL  1500   48 65  330/ 14/ 18 1029.7R


$$



USA.gov is the U.S. government's official web portal to all federal, state and local government web resources and services.